Overview Statistics Trail Chart Weather Telemetry Raw packets
 

This is the latest recevied weather packets stored in our database for station/object HI3RRR-13. If no packets are shown the sender has not sent any weather packets the latest 10 day(s).

<< 8 9 10 11 12 13 14 >>
Time Temp. Humidity Pressure Rain* Wind** Luminosity Snow
1788508120 23.33° C 91% 1014 hPa 0 mm - - -
1788507519 23.33° C 91% 1014 hPa 0 mm - - -
1788506918 23.33° C 93% 1015 hPa 0 mm - - -
1788506318 23.89° C 90% 1015 hPa 0 mm - - -
1788505717 25.56° C 83% 1015 hPa 0 mm - - -
1788505138 25.56° C 83% 1015 hPa 0 mm - - -
1788504515 25.56° C 83% 1015 hPa 0 mm - - -
1788503915 25.56° C 82% 1015 hPa 0 mm - - -
1788503314 25° C 81% 1015 hPa 0 mm - - -
1788502713 25° C 81% 1015 hPa 0 mm - - -
1788502112 25° C 81% 1015 hPa 0 mm - - -
1788501511 25.56° C 79% 1015 hPa 0 mm - - -
1788500910 26.67° C 78% 1015 hPa 0 mm - - -
1788500309 26.11° C 79% 1015 hPa 0 mm - - -
1788499708 26.67° C 78% 1016 hPa 0 mm - - -
1788499108 26.11° C 79% 1016 hPa 0 mm - - -
1788498507 25° C 81% 1016 hPa 0 mm - - -
1788497907 26.67° C 78% 1016 hPa 0 mm - - -
1788497306 26.67° C 78% 1016 hPa 0 mm - - -
1788496705 26.67° C 78% 1016 hPa 0 mm - - -
1788496105 26.67° C 78% 1016 hPa 0 mm - - -
1788495504 26.67° C 78% 1016 hPa 0 mm - - -
1788494903 26.67° C 78% 1016 hPa 0 mm - - -
1788494303 26.67° C 78% 1016 hPa 0 mm - - -
1788493702 26.67° C 78% 1016 hPa 0 mm - - -

* Rain latest hour (hover to see other rain measurements)
** Current wind speed in m/s (hover to see current wind gust speed)